{"data":{"norad_id":66486,"epoch":"2026-09-20T11:37:04.651968Z","epoch_age_seconds":90647,"freshness":"FRESH","line1":"1 66486U 25263B   26263.48408162  .00011183  00000+0  41519-3 0  9996","line2":"2 66486  43.0044 330.3068 0000985 267.2563  92.8176 15.27587237 48645","mean_motion":15.27587237,"eccentricity":9.85e-5,"inclination_deg":43.0044,"raan_deg":330.3068,"arg_perigee_deg":267.2563,"mean_anomaly_deg":92.8176,"bstar":0.00041519,"rev_number":4864,"period_min":94.266302121507,"perigee_km":482.35160124775,"apogee_km":483.70325063966,"semimajor_km":6861.1644259437,"source":"CELESTRAK","updated_at":"2026-09-21T09:00:35.918815Z"}}